Location: Sundre
(51.7972°N, 114.6405°W)
Time: 19:12:07
(UTC-06:00)

ISS - Visible Passes

Search period start: 24 March 2019 00:00
Search period end: 03 April 2019 00:00
Orbit: 408 x 411 km, 51.6° (Epoch: 24 March)

Date Brightness Start Highest point End Pass type
(mag) Time Alt. Az. Time Alt. Az. Time Alt. Az.
24 Mar -3.8 21:50:29 10° WSW 21:53:44 58° SSE 21:53:51 57° SSE visible
25 Mar -3.3 21:00:00 10° SW 21:03:09 43° SSE 21:05:30 16° E visible
25 Mar -2.3 22:36:18 10° W 22:38:16 33° W 22:38:16 33° W visible
26 Mar -3.9 21:45:38 10° WSW 21:48:56 80° S 21:49:49 46° E visible
26 Mar -0.7 23:22:13 10° W 23:22:35 13° W 23:22:35 13° W visible
27 Mar -3.8 20:55:00 10° WSW 20:58:17 66° SSE 21:01:16 12° E visible
27 Mar -3.0 22:31:32 10° W 22:34:01 48° W 22:34:01 48° W visible
28 Mar -3.9 21:40:50 10° W 21:44:08 90° SW 21:45:24 35° E visible
28 Mar -1.0 23:17:26 10° W 23:18:10 16° W 23:18:10 16° W visible
29 Mar -3.8 20:50:07 10° W 20:53:26 85° S 20:56:44 10° E visible
29 Mar -3.4 22:26:43 10° W 22:29:29 57° WSW 22:29:29 57° WSW visible
30 Mar -3.9 21:35:59 10° W 21:39:18 84° S 21:40:47 30° ESE visible
30 Mar -1.1 23:12:39 10° W 23:13:32 16° W 23:13:32 16° W visible
31 Mar -3.8 20:45:15 10° W 20:48:34 89° SW 20:51:53 10° E visible
31 Mar -3.2 22:21:52 10° W 22:24:49 47° SW 22:24:49 47° SW visible
01 Apr -3.7 21:31:05 10° W 21:34:23 64° SSW 21:36:05 25° ESE visible
01 Apr -1.1 23:08:03 10° W 23:08:50 14° WSW 23:08:50 14° WSW visible
02 Apr -2.5 22:17:04 10° W 22:19:59 29° SSW 22:20:07 29° SSW visible
